Find Starlink 31307

NORAD ID: 59089 Int'l Des: 2024-041 Owner: SPXS Country: US Constellation: starlink operational
LEOCIRCULAR

当前视图

正在加载3D地球...

About Starlink 31307

Starlink 31307 (NORAD 59089) is a starlink constellation satellite (v2 mini) launched Feb 29, 2024 by SPXS of US. It operates in LEO, CIRCULAR orbit with a mass of 730.00 kg.

关于 Starlink 31307

正在加载描述...

即将过境

Passes for default location (London). Set your location on the main map for personalized predictions.

高度历史

Loading altitude history...

两行轨道根数

1 59089U 24041R 26168.14284164 .00000285 00000-0 19888-4 0 9998
2 59089 43.0018 108.8745 0000854 272.5774 87.4980 15.27577211129537
Epoch: Jun 17, 2026 • Age: 30 hours

当前状态

高度 482.4 km
速度 7.63 km/s
星下点 3.03°N, 59.51°E
发射日期 Feb 29, 2024
运行时间 2.2 years
类型 internet

技术详情

分类 Payload
质量 730.00 kg
干质量 700.00 kg
总质量 730.00 kg
长度 0.30 m
直径 4.10 m
跨度 29.00 m
形状 Box + pan
制造商 SPXS
平台类型 Starlink V2M
阶段状态 In Orbit
所有者/国家 SPXS/US

Most Searched